STARLINK-34010 (63848 NORAD) Tracking and Keplerian Element Data

This shows tracking and keplerian element data for the satellite.

Feedback or suggestion? Click here.




ElementValue
Catalog63848
NameSTARLINK-34010
Epoch Orbit3559
Epoch Day354.18737606
Epoch Year2025
RAAN166.8596
Inclination42.9974
Eccentricity0.00015
Argument of Perigee272.9395
Mean Anonmoly87.1285
Mean Motion15.27579507
Decay Rate0.00010985
L11 63848U 25093N 25354.18737606 .00010985 00000+0 40813-3 0 9996
L22 63848 42.9974 166.8596 0001500 272.9395 87.1285 15.27579507 35591



Live tracking and technical data element details for STARLINK-34010 (NORAD 63848). STARLINK-34010 can be tracked NOW for your location showing map with azimuth and elevation plus other details from your city location.







IsCatalogInMostPopularTable: catalog: 63848, numindb: 7
Update: records affected: 1



GetName: 63848 STARLINK-34010

Hit Count: updated at: Mon, 20 Apr 2026 10:25:48 GMT